Location: Diebersbach
(48.5163°N, 8.0558°E)
Time: 20:44:47
(UTC+00:00)

USA 229 - Pass Details

Date: 24 October 2021
Orbit: 946 x 1266 km, 63.4° (Epoch: 25 November)

Event Time Altitude Azimuth Distance (km) Brightness Sun altitude
Rises 21:08:18 0° 277° (W) 3,731 7.1 -45.4°
Reaches altitude 10° 21:11:18 10° 290° (WNW) 2,827 6.4 -45.8°
Enters shadow 21:14:27 22° 315° (NW) 2,133 5.6 -46.1°
